Regional Weather Roundup
Issued by NWS

Home | Current Version | Previous Version | Graphics & Text | Print | Product List | Glossary On
Versions: 1 2 3 4 5 6 7 8 9 10 11 12 13 14 15 16 17 18 19 20 21 22 23 24 25 26 27 28 29 30 31 32 33 34 35 36 37 38 39 40 41 42 43 44 45 46 47 48 49 50
148
ASUS43 KDTX 220510
RWRMI
MICHIGAN HOURLY REGIONAL WEATHER ROUNDUP
NATIONAL WEATHER SERVICE DETROIT/PONTIAC MI
100 AM EDT SUN APR 22 2018

NOTE: "FAIR" INDICATES FEW OR NO CLOUDS BELOW 12,000 FEET WITH NO
SIGNIFICANT WEATHER AND/OR OBSTRUCTION TO VISIBILITY.

MIZ047>049-052>055-059>063-066>070-074>076-081>083-220600-
SOUTHEAST LOWER MICHIGAN

CITY           SKY/WX    TMP DP  RH WIND       PRES   REMARKS
ADRIAN         FAIR      42  22  44 CALM      30.41S
ALMA           FAIR      37  33  85 CALM      30.39S
ANN ARBOR      FAIR      36  28  73 CALM      30.40S
BAD AXE        FAIR      35  26  68 CALM      30.41S
CARO           FAIR      35  24  65 CALM      30.40S
DETROIT CITY   FAIR      40  26  57 N3        30.41F
DETROIT        MOCLDY    40  23  50 CALM      30.40F
FLINT          FAIR      36  27  69 CALM      30.40S
GROSSE ILE     FAIR      34  28  80 CALM      30.39S
HILLSDALE      FAIR      43  23  45 E5        30.38S
HOWELL         FAIR      42  27  55 CALM      30.40S

CITY           SKY/WX    TMP DP  RH WIND       PRES   REMARKS
JACKSON        FAIR      44  24  45 CALM      30.40R
LAMBERTVILLE   FAIR      40  28  63 CALM      30.40S
LANSING        FAIR      42  29  59 S5        30.40S
LAPEER         FAIR      34  31  88 CALM      30.41S
MASON          FAIR      43  25  47 S3        30.40S
MONROE         FAIR      34  28  79 NW5       30.39S WCI  30
MT. CLEMENS    FAIR      37  32  84 CALM        N/A
PONTIAC        FAIR      37  26  64 CALM      30.39F
PORT HOPE        N/A     37  24  59 S3        30.39S
PORT HURON     FAIR      32  28  86 CALM      30.42S
TRI CITIES     FAIR      45  31  58 SE3       30.39F
MIDLAND        FAIR      35  30  83 CALM      30.39S
TROY           FAIR      42  24  48 CALM      30.42F
SAGINAW HB     FAIR      41  30  65 S7        30.39S
$$
MIZ043>046-050>051-056>058-064>065-071>073-077>080-220600-
SOUTHWEST LOWER MICHIGAN

CITY           SKY/WX    TMP DP  RH WIND       PRES   REMARKS
BATTLE CREEK   FAIR      49  26  41 SE5       30.39S
BENTON HARBOR  FAIR      42  24  49 CALM      30.38F
BIG RAPIDS     FAIR      37  18  46 CALM      30.38S
COLDWATER      CLOUDY    47  26  43 SE5       30.38S
FREMONT        FAIR      37  14  40 CALM      30.39S
HOLLAND        FAIR      38  24  57 CALM      30.39S
GRAND RAPIDS   FAIR      40  24  53 SE3       30.39R
IONIA          FAIR      45  22  41 NW3       30.38S
KALAMAZOO      CLOUDY    50  28  42 CALM      30.38F
LUDINGTON      FAIR      29  25  83 CALM      30.39F
MARSHALL       FAIR      45  27  50 E3        30.39S
MOUNT PLEASANT FAIR      42  34  73 CALM      30.38S
MUSKEGON       FAIR      32  21  64 CALM      30.39F
SOUTH HAVEN    MOCLDY    42  31  63 CALM      30.38S
$$
MIZ016>042-220600-
NORTHERN LOWER MICHIGAN

CITY           SKY/WX    TMP DP  RH WIND       PRES   REMARKS
ALPENA         FAIR      30  26  85 CALM      30.41S
BEAVER ISLAND  FAIR      30  26  84 CALM      30.40S
BELLAIRE       FAIR      29  24  82 CALM      30.42S
CADILLAC       FAIR      29  22  75 CALM      30.37F
CHARLEVOIX     FAIR      32  26  76 CALM      30.44R
FRANKFORT      FAIR      31  23  73 CALM      30.40S
GAYLORD        FAIR      31  23  72 CALM      30.39S
GRAYLING       FAIR      28  20  72 CALM      30.39R
HARBOR SPRINGS FAIR      32  21  62 CALM      30.41R
HOUGHTON LAKE  FAIR      32  25  75 CALM      30.39S
MANISTEE       FAIR      27  21  78 E5        30.40S WCI  22
OSCODA         FAIR      30  20  67 CALM      30.40F
PELLSTON       FAIR      29  22  75 CALM      30.41S
ROGERS CITY    FAIR      35  21  56 SW6       30.40S WCI  30
TRAVERSE CITY  FAIR      32  26  78 CALM      30.40R
$$
MIZ007>008-015-220600-
EASTERN UPPER MICHIGAN

CITY           SKY/WX    TMP DP  RH WIND       PRES   REMARKS
KINROSS        FAIR      40  17  39 SW6       30.39S
MACKINAC ISLAN FAIR      34  20  56 W5        30.40S WCI  30
NEWBERRY       FAIR      32  24  72 CALM      30.38F
S. S. MARIE    FAIR      40  19  43 SW3       30.39S
MUNISING         N/A     30  23  75 S7        30.38S WCI  23
$$
MIZ004>006-011>014-085-220600-
CENTRAL UPPER MICHIGAN

CITY           SKY/WX    TMP DP  RH WIND       PRES   REMARKS
MANISTIQUE     FAIR      28  26  95 CALM      30.38F
ESCANABA       FAIR      28  25  88 CALM      30.39S
MENOMINEE      FAIR      39  23  52 CALM      30.39S
SAWYER-GWINN   FAIR      30  17  59 CALM      30.37S
$$
MIZ001>003-009>011-084-220600-
WESTERN UPPER MICHIGAN

CITY           SKY/WX    TMP DP  RH WIND       PRES   REMARKS
IRON MOUNTAIN  FAIR      33  23  66 CALM      30.34S
HOUGHTON       FAIR      38  14  37 CALM      30.35F
COPPER HARBOR    N/A     38  20  48 SW10G18   30.35S WCI  31
IRONWOOD       FAIR      30  25  81 CALM      30.37S
$$

ABBREVIATIONS USED IN REMARKS
   TC - TEMPERATURE IN CELSIUS
  WCI - WIND CHILL INDEX
   HX - HEAT INDEX
  VSB - VISIBILITY





USA.gov is the U.S. government's official web portal to all federal, state and local government web resources and services.